User: anonymous   Login
Location: Unspecified
(0.0000°N, 0.0000°E)
Time: 09:38:40
(UTC+00:00)
Language:

GOES 1 - Orbit

View from above orbital plane
View from above orbital plane
View from above satellite
View from above satellite

Ground track
Ground track

The orbit data is extracted from the following two-line orbital elements,

1  8366U 75100A   18263.71532042 +.00000035 +00000-0 +00000-0 0  9998
2  8366 011.2507 312.9229 0005220 298.1199 237.0400 01.00267583156861
Epoch (UTC): 20 September 2018 17:10:03
Eccentricity: 0.0005220
inclination: 11.2507°
perigee height: 35765 km
apogee height: 35809 km
right ascension of ascending node: 312.9229°
argument of perigee: 298.1199°
revolutions per day: 1.00267583
mean anomaly at epoch: 237.0400°
orbit number at epoch: 15686

The dashed part of the orbit path shows where the satellite is in the earth's shadow,  

DLR